Location: Waldport
(44.4270°N, 124.0680°W)
Time: 01:00:52
(UTC-07:00)

RESURS DK-1 - Pass Details

Date: 23 June 2018
Orbit: 558 x 561 km, 69.9° (Epoch: 19 July)

Event Time Altitude Azimuth Distance (km) Brightness Sun altitude
Exits shadow 23:17:46 33° 134° (SE) 944 3.0 -16.7°
Maximum altitude 23:18:29 36° 110° (ESE) 893 3.0 -16.8°
Drops below altitude 10° 23:22:17 10° 43° (NE) 1,854 5.2 -17.1°
Sets 23:24:36 0° 35° (NE) 2,754 6.3 -17.3°
